<?xml version="1.0" encoding="UTF-8" standalone="no" ?><gpx xmlns="http://www.topografix.com/GPX/1/1" xmlns:gpxx="http://www.garmin.com/xmlschemas/GpxExtensions/v3" xmlns:wptx1="http://www.garmin.com/xmlschemas/WaypointExtension/v1" xmlns:gpxtpx="http://www.garmin.com/xmlschemas/TrackPointExtension/v1" creator="GuideVTT.com" version="1.1" xmlns:xsi="http://www.w3.org/2001/XMLSchema-instance" xsi:schemaLocation="http://www.topografix.com/GPX/1/1 http://www.topografix.com/GPX/1/1/gpx.xsd http://www.garmin.com/xmlschemas/GpxExtensions/v3 http://www8.garmin.com/xmlschemas/GpxExtensionsv3.xsd http://www.garmin.com/xmlschemas/WaypointExtension/v1 http://www8.garmin.com/xmlschemas/WaypointExtensionv1.xsd http://www.garmin.com/xmlschemas/TrackPointExtension/v1 http://www.garmin.com/xmlschemas/TrackPointExtensionv1.xsd">
<metadata><link href="http://www.garmin.com"><text>Garmin International</text></link><time>2013-06-22T15:13:50Z</time></metadata>
<trk><name>parcours21.gpx</name><extensions><gpxx:TrackExtension><gpxx:DisplayColor>Cyan</gpxx:DisplayColor></gpxx:TrackExtension></extensions><trkseg>
<trkpt lat="46.70975000" lon="6.38201670"><ele>758</ele><time>1989-12-31T00:00:00Z</time></trkpt>
<trkpt lat="46.70946670" lon="6.38230000"><ele>761</ele><time>1989-12-31T00:00:00Z</time></trkpt>
<trkpt lat="46.70926670" lon="6.38260000"><ele>766</ele><time>1989-12-31T00:00:00Z</time></trkpt>
<trkpt lat="46.70913330" lon="6.38298330"><ele>773</ele><time>1989-12-31T00:00:00Z</time></trkpt>
<trkpt lat="46.70928330" lon="6.38415000"><ele>785</ele><time>1989-12-31T00:00:00Z</time></trkpt>
<trkpt lat="46.70935000" lon="6.38501670"><ele>786</ele><time>1989-12-31T00:00:00Z</time></trkpt>
<trkpt lat="46.70930000" lon="6.38613330"><ele>800</ele><time>1989-12-31T00:00:00Z</time></trkpt>
<trkpt lat="46.70931670" lon="6.38751670"><ele>808</ele><time>1989-12-31T00:00:00Z</time></trkpt>
<trkpt lat="46.70920000" lon="6.38785000"><ele>811</ele><time>1989-12-31T00:00:00Z</time></trkpt>
<trkpt lat="46.70898330" lon="6.38785000"><ele>814</ele><time>1989-12-31T00:00:00Z</time></trkpt>
<trkpt lat="46.70831670" lon="6.38730000"><ele>823</ele><time>1989-12-31T00:00:00Z</time></trkpt>
<trkpt lat="46.70778330" lon="6.38670000"><ele>823</ele><time>1989-12-31T00:00:00Z</time></trkpt>
<trkpt lat="46.70711670" lon="6.38571670"><ele>825</ele><time>1989-12-31T00:00:00Z</time></trkpt>
<trkpt lat="46.70691670" lon="6.38530000"><ele>825</ele><time>1989-12-31T00:00:00Z</time></trkpt>
<trkpt lat="46.70658330" lon="6.38476670"><ele>825</ele><time>1989-12-31T00:00:00Z</time></trkpt>
<trkpt lat="46.70608330" lon="6.38435000"><ele>826</ele><time>1989-12-31T00:00:00Z</time></trkpt>
<trkpt lat="46.70591670" lon="6.38433330"><ele>835</ele><time>1989-12-31T00:00:00Z</time></trkpt>
<trkpt lat="46.70585000" lon="6.38448330"><ele>847</ele><time>1989-12-31T00:00:00Z</time></trkpt>
<trkpt lat="46.70548330" lon="6.38468330"><ele>848</ele><time>1989-12-31T00:00:00Z</time></trkpt>
<trkpt lat="46.70535000" lon="6.38450000"><ele>850</ele><time>1989-12-31T00:00:00Z</time></trkpt>
<trkpt lat="46.70510000" lon="6.38355000"><ele>851</ele><time>1989-12-31T00:00:00Z</time></trkpt>
<trkpt lat="46.70498330" lon="6.38333330"><ele>859</ele><time>1989-12-31T00:00:00Z</time></trkpt>
<trkpt lat="46.70488330" lon="6.38295000"><ele>864</ele><time>1989-12-31T00:00:00Z</time></trkpt>
<trkpt lat="46.70471670" lon="6.38270000"><ele>868</ele><time>1989-12-31T00:00:00Z</time></trkpt>
<trkpt lat="46.70446670" lon="6.38208330"><ele>873</ele><time>1989-12-31T00:00:00Z</time></trkpt>
<trkpt lat="46.70436670" lon="6.38141670"><ele>876</ele><time>1989-12-31T00:00:00Z</time></trkpt>
<trkpt lat="46.70416670" lon="6.38081670"><ele>881</ele><time>1989-12-31T00:00:00Z</time></trkpt>
<trkpt lat="46.70406670" lon="6.38030000"><ele>878</ele><time>1989-12-31T00:00:00Z</time></trkpt>
<trkpt lat="46.70400000" lon="6.37955000"><ele>891</ele><time>1989-12-31T00:00:00Z</time></trkpt>
<trkpt lat="46.70390000" lon="6.37918330"><ele>897</ele><time>1989-12-31T00:00:00Z</time></trkpt>
<trkpt lat="46.70370000" lon="6.37900000"><ele>898</ele><time>1989-12-31T00:00:00Z</time></trkpt>
<trkpt lat="46.70338330" lon="6.37890000"><ele>900</ele><time>1989-12-31T00:00:00Z</time></trkpt>
<trkpt lat="46.70301670" lon="6.37858330"><ele>910</ele><time>1989-12-31T00:00:00Z</time></trkpt>
<trkpt lat="46.70296670" lon="6.37858330"><ele>862</ele><time>1989-12-31T00:00:00Z</time></trkpt>
<trkpt lat="46.70293330" lon="6.37873330"><ele>881</ele><time>1989-12-31T00:00:00Z</time></trkpt>
<trkpt lat="46.70275000" lon="6.37890000"><ele>898</ele><time>1989-12-31T00:00:00Z</time></trkpt>
<trkpt lat="46.70275000" lon="6.37895000"><ele>899</ele><time>1989-12-31T00:00:00Z</time></trkpt>
<trkpt lat="46.70316670" lon="6.37931670"><ele>908</ele><time>1989-12-31T00:00:00Z</time></trkpt>
<trkpt lat="46.70318330" lon="6.37956670"><ele>910</ele><time>1989-12-31T00:00:00Z</time></trkpt>
<trkpt lat="46.70310000" lon="6.37993330"><ele>912</ele><time>1989-12-31T00:00:00Z</time></trkpt>
<trkpt lat="46.70303330" lon="6.38041670"><ele>920</ele><time>1989-12-31T00:00:00Z</time></trkpt>
<trkpt lat="46.70308330" lon="6.38105000"><ele>921</ele><time>1989-12-31T00:00:00Z</time></trkpt>
<trkpt lat="46.70316670" lon="6.38156670"><ele>925</ele><time>1989-12-31T00:00:00Z</time></trkpt>
<trkpt lat="46.70325000" lon="6.38186670"><ele>928</ele><time>1989-12-31T00:00:00Z</time></trkpt>
<trkpt lat="46.70346670" lon="6.38238330"><ele>934</ele><time>1989-12-31T00:00:00Z</time></trkpt>
<trkpt lat="46.70345000" lon="6.38295000"><ele>936</ele><time>1989-12-31T00:00:00Z</time></trkpt>
<trkpt lat="46.70326670" lon="6.38440000"><ele>936</ele><time>1989-12-31T00:00:00Z</time></trkpt>
<trkpt lat="46.70320000" lon="6.38543330"><ele>939</ele><time>1989-12-31T00:00:00Z</time></trkpt>
<trkpt lat="46.70310000" lon="6.38583330"><ele>945</ele><time>1989-12-31T00:00:00Z</time></trkpt>
<trkpt lat="46.70311670" lon="6.38581670"><ele>961</ele><time>1989-12-31T00:00:00Z</time></trkpt>
<trkpt lat="46.70303330" lon="6.38601670"><ele>1013</ele><time>1989-12-31T00:00:00Z</time></trkpt>
<trkpt lat="46.70296670" lon="6.38621670"><ele>1012</ele><time>1989-12-31T00:00:00Z</time></trkpt>
<trkpt lat="46.70288330" lon="6.38693330"><ele>1009</ele><time>1989-12-31T00:00:00Z</time></trkpt>
<trkpt lat="46.70256670" lon="6.38788330"><ele>1010</ele><time>1989-12-31T00:00:00Z</time></trkpt>
<trkpt lat="46.70235000" lon="6.38821670"><ele>1007</ele><time>1989-12-31T00:00:00Z</time></trkpt>
<trkpt lat="46.70228330" lon="6.38836670"><ele>1007</ele><time>1989-12-31T00:00:00Z</time></trkpt>
<trkpt lat="46.70210000" lon="6.38851670"><ele>1008</ele><time>1989-12-31T00:00:00Z</time></trkpt>
<trkpt lat="46.70206670" lon="6.38905000"><ele>1008</ele><time>1989-12-31T00:00:00Z</time></trkpt>
<trkpt lat="46.70200000" lon="6.38946670"><ele>1008</ele><time>1989-12-31T00:00:00Z</time></trkpt>
<trkpt lat="46.70200000" lon="6.39091670"><ele>1008</ele><time>1989-12-31T00:00:00Z</time></trkpt>
<trkpt lat="46.70211670" lon="6.39136670"><ele>1008</ele><time>1989-12-31T00:00:00Z</time></trkpt>
<trkpt lat="46.70256670" lon="6.39118330"><ele>1008</ele><time>1989-12-31T00:00:00Z</time></trkpt>
<trkpt lat="46.70288330" lon="6.39133330"><ele>1008</ele><time>1989-12-31T00:00:00Z</time></trkpt>
<trkpt lat="46.70330000" lon="6.39173330"><ele>1008</ele><time>1989-12-31T00:00:00Z</time></trkpt>
<trkpt lat="46.70381670" lon="6.39370000"><ele>1006</ele><time>1989-12-31T00:00:00Z</time></trkpt>
<trkpt lat="46.70451670" lon="6.39520000"><ele>1000</ele><time>1989-12-31T00:00:00Z</time></trkpt>
<trkpt lat="46.70456670" lon="6.39528330"><ele>1000</ele><time>1989-12-31T00:00:00Z</time></trkpt>
<trkpt lat="46.70588330" lon="6.39693330"><ele>986</ele><time>1989-12-31T00:00:00Z</time></trkpt>
<trkpt lat="46.70593330" lon="6.39708330"><ele>986</ele><time>1989-12-31T00:00:00Z</time></trkpt>
<trkpt lat="46.70595000" lon="6.39751670"><ele>985</ele><time>1989-12-31T00:00:00Z</time></trkpt>
<trkpt lat="46.70630000" lon="6.39900000"><ele>981</ele><time>1989-12-31T00:00:00Z</time></trkpt>
<trkpt lat="46.70615000" lon="6.39888330"><ele>973</ele><time>1989-12-31T00:00:00Z</time></trkpt>
<trkpt lat="46.70610000" lon="6.39856670"><ele>950</ele><time>1989-12-31T00:00:00Z</time></trkpt>
<trkpt lat="46.70588330" lon="6.39851670"><ele>947</ele><time>1989-12-31T00:00:00Z</time></trkpt>
<trkpt lat="46.70571670" lon="6.39866670"><ele>946</ele><time>1989-12-31T00:00:00Z</time></trkpt>
<trkpt lat="46.70565000" lon="6.39896670"><ele>947</ele><time>1989-12-31T00:00:00Z</time></trkpt>
<trkpt lat="46.70568330" lon="6.39956670"><ele>947</ele><time>1989-12-31T00:00:00Z</time></trkpt>
<trkpt lat="46.70578330" lon="6.40028330"><ele>948</ele><time>1989-12-31T00:00:00Z</time></trkpt>
<trkpt lat="46.70571670" lon="6.40038330"><ele>948</ele><time>1989-12-31T00:00:00Z</time></trkpt>
<trkpt lat="46.70565000" lon="6.40060000"><ele>949</ele><time>1989-12-31T00:00:00Z</time></trkpt>
<trkpt lat="46.70541670" lon="6.40035000"><ele>947</ele><time>1989-12-31T00:00:00Z</time></trkpt>
<trkpt lat="46.70496670" lon="6.39955000"><ele>952</ele><time>1989-12-31T00:00:00Z</time></trkpt>
<trkpt lat="46.70458330" lon="6.39900000"><ele>953</ele><time>1989-12-31T00:00:00Z</time></trkpt>
<trkpt lat="46.70408330" lon="6.39835000"><ele>960</ele><time>1989-12-31T00:00:00Z</time></trkpt>
<trkpt lat="46.70325000" lon="6.39698330"><ele>989</ele><time>1989-12-31T00:00:00Z</time></trkpt>
<trkpt lat="46.70271670" lon="6.39633330"><ele>992</ele><time>1989-12-31T00:00:00Z</time></trkpt>
<trkpt lat="46.70240000" lon="6.39581670"><ele>993</ele><time>1989-12-31T00:00:00Z</time></trkpt>
<trkpt lat="46.70205000" lon="6.39510000"><ele>1000</ele><time>1989-12-31T00:00:00Z</time></trkpt>
<trkpt lat="46.70190000" lon="6.39485000"><ele>1010</ele><time>1989-12-31T00:00:00Z</time></trkpt>
<trkpt lat="46.70176670" lon="6.39440000"><ele>1021</ele><time>1989-12-31T00:00:00Z</time></trkpt>
<trkpt lat="46.70166670" lon="6.39418330"><ele>1022</ele><time>1989-12-31T00:00:00Z</time></trkpt>
<trkpt lat="46.70143330" lon="6.39351670"><ele>1027</ele><time>1989-12-31T00:00:00Z</time></trkpt>
<trkpt lat="46.70125000" lon="6.39320000"><ele>1032</ele><time>1989-12-31T00:00:00Z</time></trkpt>
<trkpt lat="46.70115000" lon="6.39290000"><ele>1033</ele><time>1989-12-31T00:00:00Z</time></trkpt>
<trkpt lat="46.70100000" lon="6.39261670"><ele>1035</ele><time>1989-12-31T00:00:00Z</time></trkpt>
<trkpt lat="46.70050000" lon="6.39148330"><ele>1047</ele><time>1989-12-31T00:00:00Z</time></trkpt>
<trkpt lat="46.70031670" lon="6.39128330"><ele>1054</ele><time>1989-12-31T00:00:00Z</time></trkpt>
<trkpt lat="46.69990000" lon="6.39101670"><ele>1059</ele><time>1989-12-31T00:00:00Z</time></trkpt>
<trkpt lat="46.69966670" lon="6.39095000"><ele>1059</ele><time>1989-12-31T00:00:00Z</time></trkpt>
<trkpt lat="46.69950000" lon="6.39083330"><ele>1061</ele><time>1989-12-31T00:00:00Z</time></trkpt>
<trkpt lat="46.69948330" lon="6.39056670"><ele>1068</ele><time>1989-12-31T00:00:00Z</time></trkpt>
<trkpt lat="46.69950000" lon="6.39050000"><ele>1068</ele><time>1989-12-31T00:00:00Z</time></trkpt>
<trkpt lat="46.69973330" lon="6.39026670"><ele>1074</ele><time>1989-12-31T00:00:00Z</time></trkpt>
<trkpt lat="46.69988330" lon="6.38993330"><ele>1074</ele><time>1989-12-31T00:00:00Z</time></trkpt>
<trkpt lat="46.69986670" lon="6.38980000"><ele>1076</ele><time>1989-12-31T00:00:00Z</time></trkpt>
<trkpt lat="46.69963330" lon="6.38976670"><ele>1079</ele><time>1989-12-31T00:00:00Z</time></trkpt>
<trkpt lat="46.69908330" lon="6.38998330"><ele>1079</ele><time>1989-12-31T00:00:00Z</time></trkpt>
<trkpt lat="46.69905000" lon="6.38991670"><ele>1079</ele><time>1989-12-31T00:00:00Z</time></trkpt>
<trkpt lat="46.69876670" lon="6.38985000"><ele>1081</ele><time>1989-12-31T00:00:00Z</time></trkpt>
<trkpt lat="46.69850000" lon="6.38990000"><ele>1082</ele><time>1989-12-31T00:00:00Z</time></trkpt>
<trkpt lat="46.69811670" lon="6.39015000"><ele>1083</ele><time>1989-12-31T00:00:00Z</time></trkpt>
<trkpt lat="46.69791670" lon="6.39053330"><ele>1085</ele><time>1989-12-31T00:00:00Z</time></trkpt>
<trkpt lat="46.69760000" lon="6.39098330"><ele>1086</ele><time>1989-12-31T00:00:00Z</time></trkpt>
<trkpt lat="46.69736670" lon="6.39126670"><ele>1087</ele><time>1989-12-31T00:00:00Z</time></trkpt>
<trkpt lat="46.69720000" lon="6.39131670"><ele>1116</ele><time>1989-12-31T00:00:00Z</time></trkpt>
<trkpt lat="46.69625000" lon="6.39126670"><ele>1120</ele><time>1989-12-31T00:00:00Z</time></trkpt>
<trkpt lat="46.69553330" lon="6.39080000"><ele>1121</ele><time>1989-12-31T00:00:00Z</time></trkpt>
<trkpt lat="46.69523330" lon="6.39056670"><ele>1121</ele><time>1989-12-31T00:00:00Z</time></trkpt>
<trkpt lat="46.69483330" lon="6.39020000"><ele>1121</ele><time>1989-12-31T00:00:00Z</time></trkpt>
<trkpt lat="46.69471670" lon="6.38978330"><ele>1121</ele><time>1989-12-31T00:00:00Z</time></trkpt>
<trkpt lat="46.69471670" lon="6.38960000"><ele>1121</ele><time>1989-12-31T00:00:00Z</time></trkpt>
<trkpt lat="46.69478330" lon="6.38905000"><ele>1123</ele><time>1989-12-31T00:00:00Z</time></trkpt>
<trkpt lat="46.69493330" lon="6.38826670"><ele>1126</ele><time>1989-12-31T00:00:00Z</time></trkpt>
<trkpt lat="46.69518330" lon="6.38721670"><ele>1124</ele><time>1989-12-31T00:00:00Z</time></trkpt>
<trkpt lat="46.69525000" lon="6.38590000"><ele>1127</ele><time>1989-12-31T00:00:00Z</time></trkpt>
<trkpt lat="46.69526670" lon="6.38456670"><ele>1120</ele><time>1989-12-31T00:00:00Z</time></trkpt>
<trkpt lat="46.69525000" lon="6.38448330"><ele>1116</ele><time>1989-12-31T00:00:00Z</time></trkpt>
<trkpt lat="46.69486670" lon="6.38380000"><ele>1112</ele><time>1989-12-31T00:00:00Z</time></trkpt>
<trkpt lat="46.69450000" lon="6.38356670"><ele>1109</ele><time>1989-12-31T00:00:00Z</time></trkpt>
<trkpt lat="46.69411670" lon="6.38313330"><ele>1109</ele><time>1989-12-31T00:00:00Z</time></trkpt>
<trkpt lat="46.69378330" lon="6.38240000"><ele>1108</ele><time>1989-12-31T00:00:00Z</time></trkpt>
<trkpt lat="46.69351670" lon="6.38223330"><ele>1106</ele><time>1989-12-31T00:00:00Z</time></trkpt>
<trkpt lat="46.69278330" lon="6.38165000"><ele>1104</ele><time>1989-12-31T00:00:00Z</time></trkpt>
<trkpt lat="46.69206670" lon="6.38076670"><ele>1097</ele><time>1989-12-31T00:00:00Z</time></trkpt>
<trkpt lat="46.69158330" lon="6.38026670"><ele>1096</ele><time>1989-12-31T00:00:00Z</time></trkpt>
<trkpt lat="46.69130000" lon="6.38028330"><ele>1088</ele><time>1989-12-31T00:00:00Z</time></trkpt>
<trkpt lat="46.69098330" lon="6.38001670"><ele>1086</ele><time>1989-12-31T00:00:00Z</time></trkpt>
<trkpt lat="46.69071670" lon="6.37970000"><ele>1087</ele><time>1989-12-31T00:00:00Z</time></trkpt>
<trkpt lat="46.69043330" lon="6.37960000"><ele>1088</ele><time>1989-12-31T00:00:00Z</time></trkpt>
<trkpt lat="46.69005000" lon="6.37953330"><ele>1088</ele><time>1989-12-31T00:00:00Z</time></trkpt>
<trkpt lat="46.68971670" lon="6.37975000"><ele>1084</ele><time>1989-12-31T00:00:00Z</time></trkpt>
<trkpt lat="46.68938330" lon="6.37976670"><ele>1084</ele><time>1989-12-31T00:00:00Z</time></trkpt>
<trkpt lat="46.68918330" lon="6.37970000"><ele>1083</ele><time>1989-12-31T00:00:00Z</time></trkpt>
<trkpt lat="46.68888330" lon="6.37933330"><ele>1083</ele><time>1989-12-31T00:00:00Z</time></trkpt>
<trkpt lat="46.68855000" lon="6.37855000"><ele>1084</ele><time>1989-12-31T00:00:00Z</time></trkpt>
<trkpt lat="46.68833330" lon="6.37781670"><ele>1082</ele><time>1989-12-31T00:00:00Z</time></trkpt>
<trkpt lat="46.68823330" lon="6.37753330"><ele>1081</ele><time>1989-12-31T00:00:00Z</time></trkpt>
<trkpt lat="46.68761670" lon="6.37671670"><ele>1077</ele><time>1989-12-31T00:00:00Z</time></trkpt>
<trkpt lat="46.68718330" lon="6.37631670"><ele>1074</ele><time>1989-12-31T00:00:00Z</time></trkpt>
<trkpt lat="46.68661670" lon="6.37608330"><ele>1073</ele><time>1989-12-31T00:00:00Z</time></trkpt>
<trkpt lat="46.68643330" lon="6.37583330"><ele>1073</ele><time>1989-12-31T00:00:00Z</time></trkpt>
<trkpt lat="46.68590000" lon="6.37481670"><ele>1074</ele><time>1989-12-31T00:00:00Z</time></trkpt>
<trkpt lat="46.68561670" lon="6.37441670"><ele>1073</ele><time>1989-12-31T00:00:00Z</time></trkpt>
<trkpt lat="46.68538330" lon="6.37448330"><ele>1072</ele><time>1989-12-31T00:00:00Z</time></trkpt>
<trkpt lat="46.68516670" lon="6.37470000"><ele>1073</ele><time>1989-12-31T00:00:00Z</time></trkpt>
<trkpt lat="46.68481670" lon="6.37535000"><ele>1073</ele><time>1989-12-31T00:00:00Z</time></trkpt>
<trkpt lat="46.68430000" lon="6.37575000"><ele>1075</ele><time>1989-12-31T00:00:00Z</time></trkpt>
<trkpt lat="46.68386670" lon="6.37593330"><ele>1079</ele><time>1989-12-31T00:00:00Z</time></trkpt>
<trkpt lat="46.68366670" lon="6.37583330"><ele>1079</ele><time>1989-12-31T00:00:00Z</time></trkpt>
<trkpt lat="46.68325000" lon="6.37451670"><ele>1081</ele><time>1989-12-31T00:00:00Z</time></trkpt>
<trkpt lat="46.68318330" lon="6.37438330"><ele>1081</ele><time>1989-12-31T00:00:00Z</time></trkpt>
<trkpt lat="46.68286670" lon="6.37421670"><ele>1081</ele><time>1989-12-31T00:00:00Z</time></trkpt>
<trkpt lat="46.68276670" lon="6.37425000"><ele>1081</ele><time>1989-12-31T00:00:00Z</time></trkpt>
<trkpt lat="46.68236670" lon="6.37461670"><ele>1084</ele><time>1989-12-31T00:00:00Z</time></trkpt>
<trkpt lat="46.68210000" lon="6.37496670"><ele>1084</ele><time>1989-12-31T00:00:00Z</time></trkpt>
<trkpt lat="46.68198330" lon="6.37505000"><ele>1084</ele><time>1989-12-31T00:00:00Z</time></trkpt>
<trkpt lat="46.68195000" lon="6.37490000"><ele>1084</ele><time>1989-12-31T00:00:00Z</time></trkpt>
<trkpt lat="46.68203330" lon="6.37418330"><ele>1085</ele><time>1989-12-31T00:00:00Z</time></trkpt>
<trkpt lat="46.68196670" lon="6.37366670"><ele>1087</ele><time>1989-12-31T00:00:00Z</time></trkpt>
<trkpt lat="46.68175000" lon="6.37321670"><ele>1091</ele><time>1989-12-31T00:00:00Z</time></trkpt>
<trkpt lat="46.68166670" lon="6.37268330"><ele>1094</ele><time>1989-12-31T00:00:00Z</time></trkpt>
<trkpt lat="46.68138330" lon="6.37178330"><ele>1097</ele><time>1989-12-31T00:00:00Z</time></trkpt>
<trkpt lat="46.68123330" lon="6.37108330"><ele>1101</ele><time>1989-12-31T00:00:00Z</time></trkpt>
<trkpt lat="46.68120000" lon="6.37073330"><ele>1104</ele><time>1989-12-31T00:00:00Z</time></trkpt>
<trkpt lat="46.68106670" lon="6.37028330"><ele>1109</ele><time>1989-12-31T00:00:00Z</time></trkpt>
<trkpt lat="46.68038330" lon="6.36843330"><ele>1118</ele><time>1989-12-31T00:00:00Z</time></trkpt>
<trkpt lat="46.68003330" lon="6.36740000"><ele>1121</ele><time>1989-12-31T00:00:00Z</time></trkpt>
<trkpt lat="46.67981670" lon="6.36686670"><ele>1124</ele><time>1989-12-31T00:00:00Z</time></trkpt>
<trkpt lat="46.67961670" lon="6.36543330"><ele>1129</ele><time>1989-12-31T00:00:00Z</time></trkpt>
<trkpt lat="46.67948330" lon="6.36505000"><ele>1132</ele><time>1989-12-31T00:00:00Z</time></trkpt>
<trkpt lat="46.67921670" lon="6.36453330"><ele>1134</ele><time>1989-12-31T00:00:00Z</time></trkpt>
<trkpt lat="46.67906670" lon="6.36403330"><ele>1138</ele><time>1989-12-31T00:00:00Z</time></trkpt>
<trkpt lat="46.67903330" lon="6.36366670"><ele>1139</ele><time>1989-12-31T00:00:00Z</time></trkpt>
<trkpt lat="46.67908330" lon="6.36333330"><ele>1143</ele><time>1989-12-31T00:00:00Z</time></trkpt>
<trkpt lat="46.67933330" lon="6.36328330"><ele>1145</ele><time>1989-12-31T00:00:00Z</time></trkpt>
<trkpt lat="46.67958330" lon="6.36335000"><ele>1146</ele><time>1989-12-31T00:00:00Z</time></trkpt>
<trkpt lat="46.68020000" lon="6.36361670"><ele>1150</ele><time>1989-12-31T00:00:00Z</time></trkpt>
<trkpt lat="46.68025000" lon="6.36356670"><ele>1166</ele><time>1989-12-31T00:00:00Z</time></trkpt>
<trkpt lat="46.68026670" lon="6.36361670"><ele>1150</ele><time>1989-12-31T00:00:00Z</time></trkpt>
<trkpt lat="46.68033330" lon="6.36363330"><ele>1151</ele><time>1989-12-31T00:00:00Z</time></trkpt>
<trkpt lat="46.68063330" lon="6.36365000"><ele>1155</ele><time>1989-12-31T00:00:00Z</time></trkpt>
<trkpt lat="46.68098330" lon="6.36365000"><ele>1159</ele><time>1989-12-31T00:00:00Z</time></trkpt>
<trkpt lat="46.68138330" lon="6.36358330"><ele>1162</ele><time>1989-12-31T00:00:00Z</time></trkpt>
<trkpt lat="46.68180000" lon="6.36343330"><ele>1166</ele><time>1989-12-31T00:00:00Z</time></trkpt>
<trkpt lat="46.68210000" lon="6.36326670"><ele>1169</ele><time>1989-12-31T00:00:00Z</time></trkpt>
<trkpt lat="46.68243330" lon="6.36243330"><ele>1174</ele><time>1989-12-31T00:00:00Z</time></trkpt>
<trkpt lat="46.68296670" lon="6.36198330"><ele>1180</ele><time>1989-12-31T00:00:00Z</time></trkpt>
<trkpt lat="46.68325000" lon="6.36180000"><ele>1184</ele><time>1989-12-31T00:00:00Z</time></trkpt>
<trkpt lat="46.68360000" lon="6.36165000"><ele>1186</ele><time>1989-12-31T00:00:00Z</time></trkpt>
<trkpt lat="46.68390000" lon="6.36178330"><ele>1188</ele><time>1989-12-31T00:00:00Z</time></trkpt>
<trkpt lat="46.68426670" lon="6.36215000"><ele>1191</ele><time>1989-12-31T00:00:00Z</time></trkpt>
<trkpt lat="46.68525000" lon="6.36283330"><ele>1200</ele><time>1989-12-31T00:00:00Z</time></trkpt>
<trkpt lat="46.68556670" lon="6.36300000"><ele>1205</ele><time>1989-12-31T00:00:00Z</time></trkpt>
<trkpt lat="46.68600000" lon="6.36310000"><ele>1208</ele><time>1989-12-31T00:00:00Z</time></trkpt>
<trkpt lat="46.68640000" lon="6.36325000"><ele>1210</ele><time>1989-12-31T00:00:00Z</time></trkpt>
<trkpt lat="46.68673330" lon="6.36350000"><ele>1214</ele><time>1989-12-31T00:00:00Z</time></trkpt>
<trkpt lat="46.68706670" lon="6.36388330"><ele>1220</ele><time>1989-12-31T00:00:00Z</time></trkpt>
<trkpt lat="46.68763330" lon="6.36445000"><ele>1222</ele><time>1989-12-31T00:00:00Z</time></trkpt>
<trkpt lat="46.68793330" lon="6.36470000"><ele>1225</ele><time>1989-12-31T00:00:00Z</time></trkpt>
<trkpt lat="46.68815000" lon="6.36470000"><ele>1229</ele><time>1989-12-31T00:00:00Z</time></trkpt>
<trkpt lat="46.68818330" lon="6.36445000"><ele>1231</ele><time>1989-12-31T00:00:00Z</time></trkpt>
<trkpt lat="46.68795000" lon="6.36415000"><ele>1233</ele><time>1989-12-31T00:00:00Z</time></trkpt>
<trkpt lat="46.68771670" lon="6.36376670"><ele>1236</ele><time>1989-12-31T00:00:00Z</time></trkpt>
<trkpt lat="46.68726670" lon="6.36291670"><ele>1241</ele><time>1989-12-31T00:00:00Z</time></trkpt>
<trkpt lat="46.68695000" lon="6.36238330"><ele>1246</ele><time>1989-12-31T00:00:00Z</time></trkpt>
<trkpt lat="46.68666670" lon="6.36176670"><ele>1245</ele><time>1989-12-31T00:00:00Z</time></trkpt>
<trkpt lat="46.68636670" lon="6.36131670"><ele>1246</ele><time>1989-12-31T00:00:00Z</time></trkpt>
<trkpt lat="46.68616670" lon="6.36096670"><ele>1250</ele><time>1989-12-31T00:00:00Z</time></trkpt>
<trkpt lat="46.68620000" lon="6.36020000"><ele>1258</ele><time>1989-12-31T00:00:00Z</time></trkpt>
<trkpt lat="46.68598330" lon="6.35978330"><ele>1263</ele><time>1989-12-31T00:00:00Z</time></trkpt>
<trkpt lat="46.68546670" lon="6.35933330"><ele>1270</ele><time>1989-12-31T00:00:00Z</time></trkpt>
<trkpt lat="46.68518330" lon="6.35896670"><ele>1271</ele><time>1989-12-31T00:00:00Z</time></trkpt>
<trkpt lat="46.68486670" lon="6.35828330"><ele>1279</ele><time>1989-12-31T00:00:00Z</time></trkpt>
<trkpt lat="46.68466670" lon="6.35796670"><ele>1280</ele><time>1989-12-31T00:00:00Z</time></trkpt>
<trkpt lat="46.68423330" lon="6.35746670"><ele>1283</ele><time>1989-12-31T00:00:00Z</time></trkpt>
<trkpt lat="46.68390000" lon="6.35725000"><ele>1287</ele><time>1989-12-31T00:00:00Z</time></trkpt>
<trkpt lat="46.68363330" lon="6.35725000"><ele>1286</ele><time>1989-12-31T00:00:00Z</time></trkpt>
<trkpt lat="46.68338330" lon="6.35735000"><ele>1290</ele><time>1989-12-31T00:00:00Z</time></trkpt>
<trkpt lat="46.68206670" lon="6.35700000"><ele>1300</ele><time>1989-12-31T00:00:00Z</time></trkpt>
<trkpt lat="46.68175000" lon="6.35685000"><ele>1305</ele><time>1989-12-31T00:00:00Z</time></trkpt>
<trkpt lat="46.68091670" lon="6.35626670"><ele>1316</ele><time>1989-12-31T00:00:00Z</time></trkpt>
<trkpt lat="46.68061670" lon="6.35596670"><ele>1318</ele><time>1989-12-31T00:00:00Z</time></trkpt>
<trkpt lat="46.68040000" lon="6.35571670"><ele>1319</ele><time>1989-12-31T00:00:00Z</time></trkpt>
<trkpt lat="46.67990000" lon="6.35545000"><ele>1324</ele><time>1989-12-31T00:00:00Z</time></trkpt>
<trkpt lat="46.67980000" lon="6.35518330"><ele>1329</ele><time>1989-12-31T00:00:00Z</time></trkpt>
<trkpt lat="46.67981670" lon="6.35503330"><ele>1330</ele><time>1989-12-31T00:00:00Z</time></trkpt>
<trkpt lat="46.67980000" lon="6.35490000"><ele>1332</ele><time>1989-12-31T00:00:00Z</time></trkpt>
<trkpt lat="46.67943330" lon="6.35431670"><ele>1336</ele><time>1989-12-31T00:00:00Z</time></trkpt>
<trkpt lat="46.67933330" lon="6.35403330"><ele>1342</ele><time>1989-12-31T00:00:00Z</time></trkpt>
<trkpt lat="46.67923330" lon="6.35363330"><ele>1342</ele><time>1989-12-31T00:00:00Z</time></trkpt>
<trkpt lat="46.67933330" lon="6.35376670"><ele>1362</ele><time>1989-12-31T00:00:00Z</time></trkpt>
<trkpt lat="46.67905000" lon="6.35348330"><ele>1363</ele><time>1989-12-31T00:00:00Z</time></trkpt>
<trkpt lat="46.67888330" lon="6.35325000"><ele>1361</ele><time>1989-12-31T00:00:00Z</time></trkpt>
<trkpt lat="46.67790000" lon="6.35231670"><ele>1363</ele><time>1989-12-31T00:00:00Z</time></trkpt>
<trkpt lat="46.67731670" lon="6.35190000"><ele>1367</ele><time>1989-12-31T00:00:00Z</time></trkpt>
<trkpt lat="46.67706670" lon="6.35163330"><ele>1368</ele><time>1989-12-31T00:00:00Z</time></trkpt>
<trkpt lat="46.67698330" lon="6.35118330"><ele>1371</ele><time>1989-12-31T00:00:00Z</time></trkpt>
<trkpt lat="46.67710000" lon="6.35078330"><ele>1374</ele><time>1989-12-31T00:00:00Z</time></trkpt>
<trkpt lat="46.67725000" lon="6.35063330"><ele>1378</ele><time>1989-12-31T00:00:00Z</time></trkpt>
<trkpt lat="46.67785000" lon="6.35080000"><ele>1387</ele><time>1989-12-31T00:00:00Z</time></trkpt>
<trkpt lat="46.67883330" lon="6.35090000"><ele>1399</ele><time>1989-12-31T00:00:00Z</time></trkpt>
<trkpt lat="46.67928330" lon="6.35086670"><ele>1407</ele><time>1989-12-31T00:00:00Z</time></trkpt>
<trkpt lat="46.67971670" lon="6.35065000"><ele>1411</ele><time>1989-12-31T00:00:00Z</time></trkpt>
<trkpt lat="46.67973330" lon="6.35060000"><ele>1412</ele><time>1989-12-31T00:00:00Z</time></trkpt>
<trkpt lat="46.67968330" lon="6.35051670"><ele>1412</ele><time>1989-12-31T00:00:00Z</time></trkpt>
<trkpt lat="46.67975000" lon="6.35021670"><ele>1417</ele><time>1989-12-31T00:00:00Z</time></trkpt>
<trkpt lat="46.67973330" lon="6.35020000"><ele>1418</ele><time>1989-12-31T00:00:00Z</time></trkpt>
<trkpt lat="46.67978330" lon="6.35028330"><ele>1419</ele><time>1989-12-31T00:00:00Z</time></trkpt>
<trkpt lat="46.67966670" lon="6.35063330"><ele>1414</ele><time>1989-12-31T00:00:00Z</time></trkpt>
<trkpt lat="46.67936670" lon="6.35083330"><ele>1407</ele><time>1989-12-31T00:00:00Z</time></trkpt>
<trkpt lat="46.67893330" lon="6.35095000"><ele>1403</ele><time>1989-12-31T00:00:00Z</time></trkpt>
<trkpt lat="46.67826670" lon="6.35086670"><ele>1395</ele><time>1989-12-31T00:00:00Z</time></trkpt>
<trkpt lat="46.67768330" lon="6.35073330"><ele>1387</ele><time>1989-12-31T00:00:00Z</time></trkpt>
<trkpt lat="46.67743330" lon="6.35063330"><ele>1383</ele><time>1989-12-31T00:00:00Z</time></trkpt>
<trkpt lat="46.67711670" lon="6.35086670"><ele>1380</ele><time>1989-12-31T00:00:00Z</time></trkpt>
<trkpt lat="46.67705000" lon="6.35126670"><ele>1377</ele><time>1989-12-31T00:00:00Z</time></trkpt>
<trkpt lat="46.67706670" lon="6.35165000"><ele>1375</ele><time>1989-12-31T00:00:00Z</time></trkpt>
<trkpt lat="46.67721670" lon="6.35191670"><ele>1374</ele><time>1989-12-31T00:00:00Z</time></trkpt>
<trkpt lat="46.67940000" lon="6.35371670"><ele>1369</ele><time>1989-12-31T00:00:00Z</time></trkpt>
<trkpt lat="46.67965000" lon="6.35451670"><ele>1365</ele><time>1989-12-31T00:00:00Z</time></trkpt>
<trkpt lat="46.67981670" lon="6.35481670"><ele>1363</ele><time>1989-12-31T00:00:00Z</time></trkpt>
<trkpt lat="46.67981670" lon="6.35541670"><ele>1358</ele><time>1989-12-31T00:00:00Z</time></trkpt>
<trkpt lat="46.68005000" lon="6.35575000"><ele>1357</ele><time>1989-12-31T00:00:00Z</time></trkpt>
<trkpt lat="46.68061670" lon="6.35603330"><ele>1356</ele><time>1989-12-31T00:00:00Z</time></trkpt>
<trkpt lat="46.68088330" lon="6.35633330"><ele>1352</ele><time>1989-12-31T00:00:00Z</time></trkpt>
<trkpt lat="46.68176670" lon="6.35698330"><ele>1335</ele><time>1989-12-31T00:00:00Z</time></trkpt>
<trkpt lat="46.68368330" lon="6.35755000"><ele>1325</ele><time>1989-12-31T00:00:00Z</time></trkpt>
<trkpt lat="46.68386670" lon="6.35753330"><ele>1324</ele><time>1989-12-31T00:00:00Z</time></trkpt>
<trkpt lat="46.68420000" lon="6.35766670"><ele>1320</ele><time>1989-12-31T00:00:00Z</time></trkpt>
<trkpt lat="46.68483330" lon="6.35835000"><ele>1307</ele><time>1989-12-31T00:00:00Z</time></trkpt>
<trkpt lat="46.68528330" lon="6.35933330"><ele>1298</ele><time>1989-12-31T00:00:00Z</time></trkpt>
<trkpt lat="46.68555000" lon="6.35981670"><ele>1295</ele><time>1989-12-31T00:00:00Z</time></trkpt>
<trkpt lat="46.68621670" lon="6.36041670"><ele>1292</ele><time>1989-12-31T00:00:00Z</time></trkpt>
<trkpt lat="46.68630000" lon="6.36138330"><ele>1280</ele><time>1989-12-31T00:00:00Z</time></trkpt>
<trkpt lat="46.68660000" lon="6.36193330"><ele>1276</ele><time>1989-12-31T00:00:00Z</time></trkpt>
<trkpt lat="46.68705000" lon="6.36261670"><ele>1271</ele><time>1989-12-31T00:00:00Z</time></trkpt>
<trkpt lat="46.68743330" lon="6.36336670"><ele>1262</ele><time>1989-12-31T00:00:00Z</time></trkpt>
<trkpt lat="46.68803330" lon="6.36438330"><ele>1250</ele><time>1989-12-31T00:00:00Z</time></trkpt>
<trkpt lat="46.68811670" lon="6.36448330"><ele>1248</ele><time>1989-12-31T00:00:00Z</time></trkpt>
<trkpt lat="46.68820000" lon="6.36476670"><ele>1245</ele><time>1989-12-31T00:00:00Z</time></trkpt>
<trkpt lat="46.68820000" lon="6.36471670"><ele>1236</ele><time>1989-12-31T00:00:00Z</time></trkpt>
<trkpt lat="46.68833330" lon="6.36476670"><ele>1235</ele><time>1989-12-31T00:00:00Z</time></trkpt>
<trkpt lat="46.68888330" lon="6.36516670"><ele>1238</ele><time>1989-12-31T00:00:00Z</time></trkpt>
<trkpt lat="46.68926670" lon="6.36541670"><ele>1245</ele><time>1989-12-31T00:00:00Z</time></trkpt>
<trkpt lat="46.69025000" lon="6.36625000"><ele>1249</ele><time>1989-12-31T00:00:00Z</time></trkpt>
<trkpt lat="46.69056670" lon="6.36676670"><ele>1260</ele><time>1989-12-31T00:00:00Z</time></trkpt>
<trkpt lat="46.69070000" lon="6.36703330"><ele>1269</ele><time>1989-12-31T00:00:00Z</time></trkpt>
<trkpt lat="46.69095000" lon="6.36736670"><ele>1270</ele><time>1989-12-31T00:00:00Z</time></trkpt>
<trkpt lat="46.69098330" lon="6.36736670"><ele>1269</ele><time>1989-12-31T00:00:00Z</time></trkpt>
<trkpt lat="46.69115000" lon="6.36773330"><ele>1272</ele><time>1989-12-31T00:00:00Z</time></trkpt>
<trkpt lat="46.69128330" lon="6.36795000"><ele>1273</ele><time>1989-12-31T00:00:00Z</time></trkpt>
<trkpt lat="46.69145000" lon="6.36815000"><ele>1274</ele><time>1989-12-31T00:00:00Z</time></trkpt>
<trkpt lat="46.69186670" lon="6.36888330"><ele>1275</ele><time>1989-12-31T00:00:00Z</time></trkpt>
<trkpt lat="46.69205000" lon="6.36915000"><ele>1275</ele><time>1989-12-31T00:00:00Z</time></trkpt>
<trkpt lat="46.69206670" lon="6.36921670"><ele>1278</ele><time>1989-12-31T00:00:00Z</time></trkpt>
<trkpt lat="46.69273330" lon="6.37028330"><ele>1275</ele><time>1989-12-31T00:00:00Z</time></trkpt>
<trkpt lat="46.69306670" lon="6.37095000"><ele>1273</ele><time>1989-12-31T00:00:00Z</time></trkpt>
<trkpt lat="46.69333330" lon="6.37185000"><ele>1268</ele><time>1989-12-31T00:00:00Z</time></trkpt>
<trkpt lat="46.69400000" lon="6.37318330"><ele>1258</ele><time>1989-12-31T00:00:00Z</time></trkpt>
<trkpt lat="46.69438330" lon="6.37386670"><ele>1248</ele><time>1989-12-31T00:00:00Z</time></trkpt>
<trkpt lat="46.69460000" lon="6.37445000"><ele>1241</ele><time>1989-12-31T00:00:00Z</time></trkpt>
<trkpt lat="46.69516670" lon="6.37546670"><ele>1231</ele><time>1989-12-31T00:00:00Z</time></trkpt>
<trkpt lat="46.69553330" lon="6.37596670"><ele>1226</ele><time>1989-12-31T00:00:00Z</time></trkpt>
<trkpt lat="46.69588330" lon="6.37678330"><ele>1210</ele><time>1989-12-31T00:00:00Z</time></trkpt>
<trkpt lat="46.69591670" lon="6.37701670"><ele>1207</ele><time>1989-12-31T00:00:00Z</time></trkpt>
<trkpt lat="46.69591670" lon="6.37895000"><ele>1176</ele><time>1989-12-31T00:00:00Z</time></trkpt>
<trkpt lat="46.69586670" lon="6.37966670"><ele>1170</ele><time>1989-12-31T00:00:00Z</time></trkpt>
<trkpt lat="46.69593330" lon="6.38030000"><ele>1163</ele><time>1989-12-31T00:00:00Z</time></trkpt>
<trkpt lat="46.69623330" lon="6.38098330"><ele>1159</ele><time>1989-12-31T00:00:00Z</time></trkpt>
<trkpt lat="46.69646670" lon="6.38126670"><ele>1157</ele><time>1989-12-31T00:00:00Z</time></trkpt>
<trkpt lat="46.69665000" lon="6.38168330"><ele>1156</ele><time>1989-12-31T00:00:00Z</time></trkpt>
<trkpt lat="46.69655000" lon="6.38228330"><ele>1151</ele><time>1989-12-31T00:00:00Z</time></trkpt>
<trkpt lat="46.69631670" lon="6.38260000"><ele>1146</ele><time>1989-12-31T00:00:00Z</time></trkpt>
<trkpt lat="46.69621670" lon="6.38310000"><ele>1141</ele><time>1989-12-31T00:00:00Z</time></trkpt>
<trkpt lat="46.69610000" lon="6.38341670"><ele>1138</ele><time>1989-12-31T00:00:00Z</time></trkpt>
<trkpt lat="46.69606670" lon="6.38348330"><ele>1137</ele><time>1989-12-31T00:00:00Z</time></trkpt>
<trkpt lat="46.69576670" lon="6.38370000"><ele>1134</ele><time>1989-12-31T00:00:00Z</time></trkpt>
<trkpt lat="46.69541670" lon="6.38411670"><ele>1131</ele><time>1989-12-31T00:00:00Z</time></trkpt>
<trkpt lat="46.69518330" lon="6.38453330"><ele>1126</ele><time>1989-12-31T00:00:00Z</time></trkpt>
<trkpt lat="46.69518330" lon="6.38520000"><ele>1129</ele><time>1989-12-31T00:00:00Z</time></trkpt>
<trkpt lat="46.69525000" lon="6.38633330"><ele>1132</ele><time>1989-12-31T00:00:00Z</time></trkpt>
<trkpt lat="46.69516670" lon="6.38731670"><ele>1132</ele><time>1989-12-31T00:00:00Z</time></trkpt>
<trkpt lat="46.69506670" lon="6.38790000"><ele>1131</ele><time>1989-12-31T00:00:00Z</time></trkpt>
<trkpt lat="46.69473330" lon="6.38950000"><ele>1129</ele><time>1989-12-31T00:00:00Z</time></trkpt>
<trkpt lat="46.69473330" lon="6.39005000"><ele>1127</ele><time>1989-12-31T00:00:00Z</time></trkpt>
<trkpt lat="46.69486670" lon="6.39035000"><ele>1125</ele><time>1989-12-31T00:00:00Z</time></trkpt>
<trkpt lat="46.69495000" lon="6.39045000"><ele>1126</ele><time>1989-12-31T00:00:00Z</time></trkpt>
<trkpt lat="46.69636670" lon="6.39150000"><ele>1124</ele><time>1989-12-31T00:00:00Z</time></trkpt>
<trkpt lat="46.69700000" lon="6.39140000"><ele>1131</ele><time>1989-12-31T00:00:00Z</time></trkpt>
<trkpt lat="46.69831670" lon="6.39016670"><ele>1129</ele><time>1989-12-31T00:00:00Z</time></trkpt>
<trkpt lat="46.69855000" lon="6.39001670"><ele>1129</ele><time>1989-12-31T00:00:00Z</time></trkpt>
<trkpt lat="46.69836670" lon="6.39020000"><ele>1129</ele><time>1989-12-31T00:00:00Z</time></trkpt>
<trkpt lat="46.69941670" lon="6.38990000"><ele>1126</ele><time>1989-12-31T00:00:00Z</time></trkpt>
<trkpt lat="46.69993330" lon="6.38996670"><ele>1123</ele><time>1989-12-31T00:00:00Z</time></trkpt>
<trkpt lat="46.69915000" lon="6.39086670"><ele>1121</ele><time>1989-12-31T00:00:00Z</time></trkpt>
<trkpt lat="46.70085000" lon="6.39148330"><ele>1121</ele><time>1989-12-31T00:00:00Z</time></trkpt>
<trkpt lat="46.70151670" lon="6.39278330"><ele>1121</ele><time>1989-12-31T00:00:00Z</time></trkpt>
<trkpt lat="46.70275000" lon="6.39510000"><ele>1121</ele><time>1989-12-31T00:00:00Z</time></trkpt>
<trkpt lat="46.70396670" lon="6.39706670"><ele>1121</ele><time>1989-12-31T00:00:00Z</time></trkpt>
<trkpt lat="46.70531670" lon="6.39886670"><ele>1121</ele><time>1989-12-31T00:00:00Z</time></trkpt>
<trkpt lat="46.70628330" lon="6.40030000"><ele>1111</ele><time>1989-12-31T00:00:00Z</time></trkpt>
<trkpt lat="46.70663330" lon="6.40045000"><ele>1110</ele><time>1989-12-31T00:00:00Z</time></trkpt>
<trkpt lat="46.70640000" lon="6.40038330"><ele>1101</ele><time>1989-12-31T00:00:00Z</time></trkpt>
<trkpt lat="46.70651670" lon="6.40021670"><ele>1101</ele><time>1989-12-31T00:00:00Z</time></trkpt>
<trkpt lat="46.70646670" lon="6.39941670"><ele>1100</ele><time>1989-12-31T00:00:00Z</time></trkpt>
<trkpt lat="46.70651670" lon="6.39910000"><ele>1100</ele><time>1989-12-31T00:00:00Z</time></trkpt>
<trkpt lat="46.70728330" lon="6.40023330"><ele>899</ele><time>1989-12-31T00:00:00Z</time></trkpt>
<trkpt lat="46.70743330" lon="6.40038330"><ele>898</ele><time>1989-12-31T00:00:00Z</time></trkpt>
<trkpt lat="46.70771670" lon="6.40056670"><ele>891</ele><time>1989-12-31T00:00:00Z</time></trkpt>
<trkpt lat="46.70796670" lon="6.40046670"><ele>889</ele><time>1989-12-31T00:00:00Z</time></trkpt>
<trkpt lat="46.70840000" lon="6.39935000"><ele>880</ele><time>1989-12-31T00:00:00Z</time></trkpt>
<trkpt lat="46.70886670" lon="6.39845000"><ele>877</ele><time>1989-12-31T00:00:00Z</time></trkpt>
<trkpt lat="46.70898330" lon="6.39800000"><ele>876</ele><time>1989-12-31T00:00:00Z</time></trkpt>
<trkpt lat="46.70908330" lon="6.39713330"><ele>875</ele><time>1989-12-31T00:00:00Z</time></trkpt>
<trkpt lat="46.70930000" lon="6.39658330"><ele>873</ele><time>1989-12-31T00:00:00Z</time></trkpt>
<trkpt lat="46.70961670" lon="6.39516670"><ele>860</ele><time>1989-12-31T00:00:00Z</time></trkpt>
<trkpt lat="46.70980000" lon="6.39475000"><ele>859</ele><time>1989-12-31T00:00:00Z</time></trkpt>
<trkpt lat="46.70988330" lon="6.39441670"><ele>855</ele><time>1989-12-31T00:00:00Z</time></trkpt>
<trkpt lat="46.70995000" lon="6.39395000"><ele>851</ele><time>1989-12-31T00:00:00Z</time></trkpt>
<trkpt lat="46.70986670" lon="6.39335000"><ele>848</ele><time>1989-12-31T00:00:00Z</time></trkpt>
<trkpt lat="46.71005000" lon="6.39246670"><ele>840</ele><time>1989-12-31T00:00:00Z</time></trkpt>
<trkpt lat="46.71010000" lon="6.39198330"><ele>836</ele><time>1989-12-31T00:00:00Z</time></trkpt>
<trkpt lat="46.70998330" lon="6.39080000"><ele>813</ele><time>1989-12-31T00:00:00Z</time></trkpt>
<trkpt lat="46.70986670" lon="6.38980000"><ele>810</ele><time>1989-12-31T00:00:00Z</time></trkpt>
<trkpt lat="46.70953330" lon="6.38863330"><ele>806</ele><time>1989-12-31T00:00:00Z</time></trkpt>
<trkpt lat="46.70935000" lon="6.38740000"><ele>804</ele><time>1989-12-31T00:00:00Z</time></trkpt>
<trkpt lat="46.70928330" lon="6.38601670"><ele>800</ele><time>1989-12-31T00:00:00Z</time></trkpt>
<trkpt lat="46.70930000" lon="6.38491670"><ele>791</ele><time>1989-12-31T00:00:00Z</time></trkpt>
<trkpt lat="46.70923330" lon="6.38371670"><ele>786</ele><time>1989-12-31T00:00:00Z</time></trkpt>
<trkpt lat="46.70915000" lon="6.38311670"><ele>783</ele><time>1989-12-31T00:00:00Z</time></trkpt>
</trkseg></trk></gpx>